Location: Unspecified
(47.4992°N, 121.7766°W)
Time: 10:37:08
(UTC-07:00)

Resurs 1-4 Rocket - Visible Passes

Search period start: 23 September 2019 00:00
Search period end: 03 October 2019 00:00
Orbit: 799 x 814 km, 98.6° (Epoch: 23 September)

Date Brightness Start Highest point End Pass type
(mag) Time Alt. Az. Time Alt. Az. Time Alt. Az.
23 Sep 4.2 02:18:27 10° NNE 02:20:33 22° NE 02:20:33 22° NE visible
23 Sep 3.4 03:58:27 10° N 04:01:37 28° NNW 04:01:37 28° NNW visible
24 Sep 4.6 01:54:17 10° NE 01:55:33 15° NE 01:55:33 15° NE visible
24 Sep 3.4 03:33:35 10° N 03:36:37 32° NNW 03:36:37 32° NNW visible
25 Sep 3.6 03:08:52 10° NNE 03:11:37 32° N 03:11:37 32° N visible
25 Sep 4.0 04:50:27 10° NNW 04:52:42 14° NW 04:52:42 14° NW visible
26 Sep 4.0 02:44:18 10° NNE 02:46:38 27° NNE 02:46:38 27° NNE visible
26 Sep 3.8 04:25:01 10° N 04:27:42 20° NW 04:27:42 20° NW visible
27 Sep 4.4 02:19:53 10° NNE 02:21:38 20° NE 02:21:38 20° NE visible
27 Sep 3.6 03:59:56 10° N 04:02:42 25° NNW 04:02:42 25° NNW visible
28 Sep 4.8 01:55:42 10° NE 01:56:38 14° NE 01:56:38 14° NE visible
28 Sep 3.6 03:35:04 10° N 03:37:42 28° N 03:37:42 28° N visible
29 Sep 3.8 03:10:20 10° NNE 03:12:42 27° N 03:12:42 27° N visible
29 Sep 4.1 04:51:58 10° NNW 04:53:46 14° NW 04:53:46 14° NW visible
30 Sep 4.2 02:45:44 10° NNE 02:47:42 23° NNE 02:47:42 23° NNE visible
30 Sep 3.9 04:26:30 10° NNW 04:28:46 18° NW 04:28:46 18° NW visible
01 Oct 4.6 02:21:19 10° NNE 02:22:41 18° NE 02:22:41 18° NE visible
01 Oct 3.8 04:01:25 10° N 04:03:46 23° NNW 04:03:46 23° NNW visible
02 Oct 4.9 01:57:08 10° NE 01:57:42 12° NE 01:57:42 12° NE visible
02 Oct 3.9 03:36:31 10° N 03:38:46 25° N 03:38:46 25° N visible
